Terug naar catalogus

MOBIUS-1

ActiefWetenschapSSO
NORAD 64556·PAYLOAD·🇨🇦 Canada
Deze satellietnaam is nog niet bevestigd door officiële bronnen.

Gelanceerd Jun 23, 2025 vanaf Vandenberg Space Force Base

Loading…

Volgende Passages (komende 24 uur)

TLE

VersSource: Space-Track

Epoch: Sep 14, 2026, 03:22 UTC

1 64556U 25135AE  26257.14050187  .00006920  00000-0  26326-3 0  9999
2 64556  97.4827  13.8428 0002936 100.9087 259.2482 15.27083323 68512

Volg MOBIUS-1 in realtime met AllMySat

Download on the App Store